2020-102D (47299 NORAD) Tracking and Keplerian Element Data

This shows tracking and keplerian element data for the satellite.

Feedback or suggestion? Click here.




ElementValue
Catalog47299
Name2020-102D
Epoch Orbit1047
Epoch Day60.18751105
Epoch Year2021
RAAN159.5396
Inclination97.4306
Eccentricity0.000328
Argument of Perigee272.6964
Mean Anonmoly175.5895
Mean Motion15.19829126
Decay Rate1.683E-05
L11 47299U 20102D 21060.18751105 .00001683 00000-0 81737-4 0 9991
L22 47299 97.4306 159.5396 0003280 272.6964 175.5895 15.19829126 10475

Live tracking and technical data element details for 2020-102D (NORAD 47299). 2020-102D can be tracked NOW for your location showing map with azimuth and elevation plus other details from your city location.

Track the satellite on the map from your city or location and see movement details for azimuth, elevation, latitude, longitude, range, height, and movement on the map or in text.







IsCatalogInMostPopularTable: catalog: 47299, numindb: 20
Update: records affected: 1



GetName: 47299 2020-102D

Hit Count: updated at: Mon, 01 Mar 2021 22:37:15 GMT